sat.trackr.live / text

‹ back to catalog

STARLINK-34116

NORAD 63890 · 2025-095A

PAYLOAD ACTIVE UNKNOWN

§ Identity

Operator
Country
US
Launch date
2025-05-10
Launch site
AFETR
Launch vehicle
Mass (kg)
RCS (m²)

Purposes: comms

External: N2YO · Heavens-Above · Gunter

§ Orbital elements

Epoch: 2026-09-19T02:06:38.907648Z

Period
94.27 min
Inclination
42.9968°
Eccentricity
0.0001287
Mean motion
15.27583116 rev/d
Perigee alt
482.2 km
Apogee alt
483.9 km
Semi-major
6,861.2 km
B*
5.1454e-4
RAAN
164.1733°
Arg perigee
268.8412°
Mean anomaly
91.2293°
Rev number
7,736

§ Raw data

STARLINK-341161 63890U 25095A   26262.08795032  .00013925  00000+0  51454-3 0  99902 63890  42.9968 164.1733 0001287 268.8412  91.2293 15.27583116 77368

JSON: /api/v1/satellites/63890 · /tle

For live sub-satellite position, see the globe view (requires WebGL).

§ Visibility from observer

Set your observer location to see the next 7 days of passes ≥ 10°. The values pass through the URL so the page stays shareable.

No JS? Fill the form by hand. The geolocation button needs JavaScript.